[[{"header":{"parameterUnit":"m.s-1","parameterCategory":1,"la1":30.2991,"la2":30.254,"lo1":-89.0895,"lo2":-89.0444,"dy":0.0017,"dx":0.0017,"nx":28,"ny":28,"refTime":"2024-07-13T21:00:00:Z","depth":0,"parameterNumber":2,"parameterNumberName":"U-component_of_WINDS"},"data":[0,0,0,0,0,0,0,0,0,0,0,0,0,0,0,0,0,0,0,0,0,0,0,0,0,0,0,0,0,0,0,0,0,0,0,0,0,0,0,0,0,0,0,0,0,0,0,0,0,0,0,0,0,0,0,0,0,0,2.338,2.3381,0,2.3465,2.3466,2.3467,2.3441,2.3439,2.3438,2.3436,2.3527,2.3531,2.3535,0,0,0,0,0,0,0,0,0,0,0,0,0,2.3199,2.3202,2.338,2.3381,2.3382,2.3465,2.3466,2.3467,2.3441,2.3439,2.3437,2.3435,2.3526,2.3531,2.3536,0,0,0,0,0,0,0,0,0,0,0,0,0,2.328,2.3203,2.338,2.3379,2.338,2.3464,2.3466,2.3467,2.3442,2.3439,2.3437,2.3434,2.3524,2.353,2.3536,2.3628,0,0,2.3555,2.3558,0,0,0,0,0,0,0,0,2.3275,2.3287,2.3378,2.3379,2.338,2.3439,2.3435,2.3521,2.3443,2.3419,2.3436,2.3433,2.3501,2.3509,2.353,2.3632,2.3636,2.3556,2.356,2.3562,2.3564,0,0,0,0,0,0,0,2.327,2.3283,2.3413,2.3379,2.3381,2.3376,2.3384,2.3452,2.3474,2.342,2.3419,2.3429,2.3501,2.3525,2.3532,2.3638,2.3556,2.3561,2.3565,2.3567,2.3817,2.382,0,0,0,0,0,0,2.3263,2.3278,2.3411,2.3416,2.332,2.3381,2.3391,2.3423,2.3473,2.3478,2.3431,2.3427,2.3515,2.3525,2.3536,2.3645,2.3562,2.3568,2.3571,2.3814,2.3818,2.3821,0,0,0,0,0,0,2.3259,2.3275,2.3407,2.3347,2.3363,2.3387,2.3424,2.3426,2.345,2.3481,2.3485,2.3451,2.3514,2.3527,2.3605,2.3648,2.3571,2.3576,2.3811,2.3816,2.382,2.3865,0,0,0,0,0,0,2.3254,2.3274,2.3308,2.3348,2.3366,2.3474,2.3427,2.343,2.346,2.3456,2.3501,2.3506,2.3513,2.3595,2.3611,2.3655,2.3581,2.3807,2.3813,2.3818,2.386,2.387,2.3879,0,0,0,0,0,2.3248,2.3319,2.331,2.3326,2.341,2.3477,2.3488,2.3493,2.3464,2.3499,2.3518,2.3504,2.3641,2.3604,2.3621,2.3667,2.3804,2.3811,2.3818,2.3855,2.3868,2.3879,0,0,0,0,0,0,2.3286,2.3324,2.3315,2.34,2.3435,2.3472,2.3517,2.3507,2.3551,2.3546,2.3552,2.3562,2.3641,2.3662,2.362,2.3758,2.3718,2.3729,2.3741,2.3754,2.3763,2.3757,2.3586,0,0,0,0,0,2.3304,2.3353,2.3385,2.3458,2.3475,2.3493,2.3522,2.3523,2.356,2.3575,2.36,2.3638,2.3689,2.3723,2.3771,2.3862,2.3871,2.3903,2.3913,2.3921,2.3929,2.3978,2.3992,2.3843,2.3843,2.3843,0,0,2.3342,2.3369,2.3401,2.3466,2.3493,2.3545,2.3506,2.3563,2.3602,2.3584,2.3658,2.3678,2.372,2.3805,2.3843,2.3824,2.3972,2.3929,2.3935,2.394,2.3986,2.4,2.4013,2.3848,2.3847,2.3846,0,0,2.3438,2.3464,2.3527,2.3554,2.3595,2.3606,2.3621,2.3659,2.3671,2.3745,2.3732,2.3779,2.3868,2.3897,2.3924,2.403,2.4019,2.4047,2.4098,2.4145,2.4157,2.4167,2.4204,2.4218,2.4055,2.4055,2.4055,0,2.3481,2.3558,2.3561,2.3618,2.3647,2.3632,2.3695,2.3722,2.3778,2.3798,2.3776,2.3885,2.3913,2.4003,2.4029,2.4051,2.4069,2.4041,2.4155,2.4165,2.4175,2.421,2.4224,2.4058,2.4058,2.4058,2.4057,0,2.3608,2.3662,2.3708,2.3759,2.3794,2.3854,2.3866,2.3901,2.3899,2.3912,2.3987,2.402,2.4074,2.4096,2.4095,2.4186,2.4173,2.4153,2.4114,2.4192,2.4225,2.4239,2.4063,2.4062,2.4061,2.406,0,0,2.3731,2.3782,2.3799,2.3821,2.3865,2.3907,2.3967,2.4018,2.4047,2.4086,2.4136,2.421,2.4191,2.4222,2.4224,2.4266,2.4346,2.4241,2.4242,2.4258,2.4447,2.4461,2.4477,2.4339,2.4342,2.4344,2.4443,0,2.383,2.3934,2.3937,2.4032,2.4081,2.4067,2.4119,2.4152,2.4166,2.421,2.4227,2.4278,2.425,2.4268,2.4309,2.4328,2.4384,2.4321,2.4386,2.4388,2.4375,2.4494,2.451,2.4602,2.4457,2.4459,2.446,0,2.396,2.4,2.4099,2.4134,2.4155,2.4202,2.4248,2.4291,2.4328,2.4335,2.4368,2.4364,2.4426,2.4384,2.4469,2.4426,2.4453,2.4466,2.447,2.4476,2.4429,2.4503,2.4632,2.4646,2.4481,2.448,2.4478,0,2.4038,2.4118,2.4187,2.4207,2.4249,2.4282,2.4302,2.4336,2.4366,2.4407,2.4427,2.4476,2.4502,2.454,2.4549,2.4518,2.4634,2.4594,2.4642,2.4641,2.4666,2.4665,2.4801,2.4685,2.4685,2.4685,2.4685,0,2.4148,2.4209,2.4222,2.4265,2.4333,2.4336,2.4404,2.4421,2.4451,2.4497,2.4489,2.4532,2.4542,2.4588,2.4596,2.4664,2.4677,2.4685,2.4686,2.4685,2.4684,2.4702,2.4696,2.4689,2.4688,2.4687,2.4686,0,2.4246,2.4258,2.4332,2.4366,2.4376,2.4424,2.4453,2.4494,2.4507,2.4565,2.4579,2.46,2.4653,2.4666,2.473,2.4735,2.4816,2.4811,2.4803,2.4802,2.4849,2.4844,2.5002,2.5022,2.4894,2.4895,2.4896,0,2.4315,2.4361,2.44,2.4429,2.4449,2.4497,2.4527,2.4533,2.4565,2.4609,2.4645,2.4697,2.4738,2.4824,2.4845,2.4894,2.489,2.4942,2.4898,2.4895,2.489,2.4886,2.489,2.495,2.4952,2.4953,2.4954,0,2.4436,2.4439,2.4482,2.4527,2.4563,2.4599,2.4633,2.4658,2.4669,2.4705,2.4758,2.479,2.4855,2.4906,2.4955,2.4976,2.4967,2.4968,2.4981,2.498,2.4972,2.4976,2.4825,2.4964,2.4963,2.4962,2.4962,2.4961,2.4521,2.4561,2.4593,2.4641,2.4667,2.4699,2.4739,2.4756,2.48,2.4851,2.4852,2.491,2.4945,2.5009,2.5033,2.5079,2.5063,2.5083,2.5088,2.5092,2.5095,2.4966,2.5088,2.5087,2.5087,2.5087,2.5087,0,2.464,2.4659,2.4704,2.4751,2.4789,2.4776,2.4813,2.4845,2.4896,2.4929,2.4969,2.503,2.5079,2.5104,2.5153,2.5185,2.5181,2.5197,2.5194,2.5199,2.5108,2.509,2.5199,2.5199,2.5199,2.5199,2.5199,2.5199,2.4706,2.4772,2.4779,2.4858,2.4878,2.4933,2.4955,2.4985,2.501,2.5078,2.5118,2.5133,2.5163,2.5213,2.5258,2.5264,2.5282,2.53,2.5303,2.5217,2.5206,2.5195,2.5179,2.5304,2.5304,2.5391,2.5392,2.5392]},{"header":{"parameterUnit":"m.s-1","parameterCategory":1,"la1":30.2991,"la2":30.254,"lo1":-89.0895,"lo2":-89.0444,"dy":0.0017,"dx":0.0017,"nx":28,"ny":28,"refTime":"2024-07-13T21:00:00:Z","depth":0,"parameterNumber":3,"parameterNumberName":"V-component_of_WINDS"},"data":[0,0,0,0,0,0,0,0,0,0,0,0,0,0,0,0,0,0,0,0,0,0,0,0,0,0,0,0,0,0,0,0,0,0,0,0,0,0,0,0,0,0,0,0,0,0,0,0,0,0,0,0,0,0,0,0,0,0,3.5156,3.5157,0,3.5225,3.5225,3.5226,3.5265,3.5265,3.5265,3.5265,3.533,3.5332,3.5333,0,0,0,0,0,0,0,0,0,0,0,0,0,3.5052,3.5054,3.5156,3.5157,3.5158,3.5225,3.5226,3.5226,3.5265,3.5265,3.5265,3.5265,3.5329,3.5331,3.5333,0,0,0,0,0,0,0,0,0,0,0,0,0,3.5106,3.5054,3.5156,3.5185,3.5189,3.5224,3.5226,3.5227,3.5265,3.5265,3.5265,3.5265,3.5329,3.5331,3.5334,3.5344,0,0,3.5341,3.5342,0,0,0,0,0,0,0,0,3.5103,3.511,3.518,3.5183,3.5187,3.5237,3.5213,3.5266,3.5265,3.5236,3.5265,3.5265,3.5298,3.5303,3.5315,3.5347,3.535,3.5341,3.5342,3.5344,3.5344,0,0,0,0,0,0,0,3.5099,3.5107,3.5183,3.5181,3.5185,3.5193,3.5201,3.5223,3.5265,3.5238,3.5241,3.5249,3.53,3.5313,3.5317,3.5351,3.5341,3.5343,3.5345,3.5346,3.5392,3.5392,0,0,0,0,0,0,3.5092,3.5104,3.5181,3.5185,3.5145,3.5194,3.5203,3.522,3.5265,3.5272,3.5249,3.525,3.5309,3.5314,3.532,3.5334,3.5343,3.5346,3.5347,3.5392,3.5392,3.5392,0,0,0,0,0,0,3.5089,3.5098,3.5178,3.5145,3.5156,3.5196,3.5215,3.5222,3.5235,3.5273,3.528,3.5255,3.5309,3.5316,3.5338,3.5337,3.5347,3.5349,3.5392,3.5392,3.5392,3.5363,0,0,0,0,0,0,3.5086,3.5097,3.5104,3.5145,3.5158,3.5197,3.5215,3.5223,3.5239,3.5242,3.528,3.5287,3.531,3.5334,3.534,3.534,3.5351,3.5393,3.5392,3.5392,3.5364,3.5361,3.5359,0,0,0,0,0,3.5082,3.5092,3.5104,3.5113,3.5167,3.5197,3.5204,3.5232,3.5239,3.5244,3.5268,3.5285,3.5336,3.5336,3.5343,3.5344,3.5393,3.5392,3.5392,3.5365,3.5362,3.5359,0,0,0,0,0,0,3.5048,3.5098,3.5112,3.5136,3.5162,3.5203,3.5212,3.5228,3.5252,3.5254,3.5286,3.5294,3.5312,3.533,3.5329,3.5355,3.5366,3.5367,3.5343,3.534,3.5338,3.5333,3.5353,0,0,0,0,0,3.5043,3.5066,3.5108,3.5124,3.5137,3.5172,3.5186,3.5205,3.5233,3.5244,3.527,3.5294,3.5315,3.5329,3.5351,3.5366,3.5374,3.537,3.5368,3.5366,3.5366,3.5374,3.5372,3.539,3.539,3.539,0,0,3.5034,3.5064,3.5076,3.5118,3.5141,3.5161,3.5181,3.5202,3.5216,3.5246,3.5269,3.5288,3.5317,3.5335,3.5344,3.5351,3.5362,3.5365,3.5363,3.5365,3.5373,3.5371,3.5369,3.539,3.539,3.539,0,0,3.5027,3.5052,3.5069,3.5091,3.5125,3.5147,3.5151,3.519,3.5204,3.5227,3.5249,3.5265,3.5302,3.5322,3.5336,3.5333,3.5349,3.5339,3.5327,3.5334,3.5332,3.5331,3.5329,3.5328,3.5339,3.5339,3.5339,0,3.501,3.5044,3.5074,3.5094,3.511,3.5139,3.5154,3.5174,3.5212,3.5222,3.5229,3.5274,3.5296,3.5318,3.5317,3.5328,3.5332,3.5335,3.5331,3.533,3.5329,3.5327,3.5326,3.5338,3.5338,3.5338,3.5338,0,3.502,3.5043,3.5051,3.5089,3.5106,3.5123,3.5154,3.5168,3.5185,3.5206,3.5226,3.5254,3.528,3.5287,3.5304,3.531,3.5313,3.5325,3.5336,3.5325,3.5324,3.5323,3.5336,3.5336,3.5337,3.5337,0,0,3.4996,3.5049,3.5051,3.5068,3.5106,3.5123,3.5139,3.5167,3.5177,3.5201,3.5215,3.5244,3.5254,3.5271,3.5289,3.5295,3.5289,3.5306,3.5307,3.5301,3.5296,3.5287,3.5286,3.53,3.53,3.53,3.5293,0,3.4994,3.5027,3.5054,3.5077,3.5096,3.5122,3.5136,3.516,3.5179,3.5197,3.5217,3.5237,3.525,3.526,3.5267,3.5288,3.5288,3.5289,3.531,3.5311,3.5302,3.5285,3.5276,3.5269,3.5293,3.5293,3.5293,0,3.4997,3.5021,3.5046,3.508,3.5089,3.5102,3.5127,3.5144,3.517,3.5184,3.5201,3.522,3.5236,3.5245,3.5267,3.5267,3.5276,3.5288,3.5288,3.5291,3.5301,3.5287,3.5268,3.5267,3.5293,3.5293,3.5293,0,3.4975,3.5013,3.5033,3.5046,3.5087,3.5094,3.5111,3.5138,3.5152,3.5173,3.5182,3.5205,3.5217,3.5233,3.5257,3.5262,3.5275,3.5287,3.5285,3.5284,3.5286,3.5286,3.5268,3.5293,3.5293,3.5293,3.5293,0,3.497,3.4983,3.5023,3.5035,3.505,3.5079,3.5093,3.5111,3.5134,3.5148,3.5172,3.5184,3.5215,3.523,3.5248,3.5262,3.5267,3.5277,3.5281,3.5275,3.5273,3.5282,3.5282,3.5293,3.5293,3.5293,3.5293,0,3.4948,3.4976,3.4998,3.5035,3.5044,3.5053,3.5083,3.5094,3.5113,3.5131,3.5136,3.5167,3.5186,3.5211,3.5237,3.5249,3.526,3.5268,3.5252,3.5254,3.5251,3.525,3.5237,3.5236,3.5262,3.5262,3.5262,0,3.4944,3.4955,3.4992,3.5003,3.502,3.5038,3.5052,3.508,3.5093,3.5122,3.5129,3.5149,3.5168,3.5196,3.5219,3.5239,3.5247,3.5241,3.525,3.5242,3.5245,3.5244,3.5244,3.5238,3.5238,3.5238,3.5237,0,3.4931,3.4944,3.4964,3.4988,3.5004,3.5024,3.5045,3.5053,3.5084,3.5097,3.5117,3.5131,3.5158,3.5177,3.52,3.5215,3.523,3.5234,3.5234,3.5227,3.5217,3.5221,3.5245,3.5234,3.5235,3.5235,3.5235,3.5235,3.4918,3.4928,3.4955,3.4976,3.4994,3.5012,3.5024,3.5045,3.5062,3.5087,3.5101,3.512,3.5143,3.5175,3.5189,3.5202,3.5208,3.5209,3.5209,3.5209,3.5206,3.5215,3.5206,3.5206,3.5207,3.5207,3.5207,0,3.4906,3.4924,3.4943,3.4971,3.4987,3.5001,3.5024,3.5035,3.5052,3.5072,3.5089,3.511,3.5129,3.5153,3.5172,3.5178,3.5185,3.5182,3.5182,3.5184,3.52,3.5197,3.5176,3.5176,3.5176,3.5176,3.5176,3.5176,3.4902,3.4919,3.4934,3.496,3.4977,3.4997,3.5008,3.5024,3.504,3.5063,3.5079,3.5095,3.5115,3.5136,3.5153,3.5159,3.5164,3.5159,3.5167,3.5181,3.5184,3.5186,3.5184,3.516,3.516,3.515,3.515,3.515]}]]